Year,Month,Day,Hour,Minute,Value (Times are PST for barometer in hPa)
2008,01,05,00,00,972.67
2008,01,05,00,01,972.75
2008,01,05,00,02,972.84
2008,01,05,00,03,972.84
2008,01,05,00,04,972.88
2008,01,05,00,05,972.88
2008,01,05,00,06,972.87
2008,01,05,00,07,972.84
2008,01,05,00,08,972.81
2008,01,05,00,09,972.84
2008,01,05,00,10,972.84
2008,01,05,00,11,972.82
2008,01,05,00,12,972.83
2008,01,05,00,13,972.80
2008,01,05,00,14,972.77
2008,01,05,00,15,972.77
2008,01,05,00,16,972.77
2008,01,05,00,17,972.77
2008,01,05,00,18,972.78
2008,01,05,00,19,972.83
2008,01,05,00,20,972.78
2008,01,05,00,21,972.82
2008,01,05,00,22,972.84
2008,01,05,00,23,972.91
2008,01,05,00,24,972.91
2008,01,05,00,25,972.91
2008,01,05,00,26,972.94
2008,01,05,00,27,972.94
2008,01,05,00,28,972.94
2008,01,05,00,29,972.92
2008,01,05,00,30,972.97
2008,01,05,00,31,972.94
2008,01,05,00,32,972.94
2008,01,05,00,33,972.98
2008,01,05,00,34,973.01
2008,01,05,00,35,973.05
2008,01,05,00,36,973.05
2008,01,05,00,37,973.11
2008,01,05,00,38,973.12
2008,01,05,00,39,973.15
2008,01,05,00,40,973.18
2008,01,05,00,41,973.26
2008,01,05,00,42,973.32
2008,01,05,00,43,973.35
2008,01,05,00,44,973.43
2008,01,05,00,45,973.49
2008,01,05,00,46,973.52
2008,01,05,00,47,973.48
2008,01,05,00,48,973.41
2008,01,05,00,49,973.35
2008,01,05,00,50,973.27
2008,01,05,00,51,973.14
2008,01,05,00,52,973.05
2008,01,05,00,53,973.16
2008,01,05,00,54,973.25
2008,01,05,00,55,973.29
2008,01,05,00,56,973.32
2008,01,05,00,57,973.33
2008,01,05,00,58,973.38
2008,01,05,00,59,973.38
2008,01,05,01,00,973.43
2008,01,05,01,01,973.50
2008,01,05,01,02,973.54
2008,01,05,01,03,973.51
2008,01,05,01,04,973.46
2008,01,05,01,05,973.55
2008,01,05,01,06,973.59
2008,01,05,01,07,973.62
2008,01,05,01,08,973.62
2008,01,05,01,09,973.59
2008,01,05,01,10,973.62
2008,01,05,01,11,973.62
2008,01,05,01,12,973.58
2008,01,05,01,13,973.49
2008,01,05,01,14,973.45
2008,01,05,01,15,973.42
2008,01,05,01,16,973.43
2008,01,05,01,17,973.49
2008,01,05,01,18,973.53
2008,01,05,01,19,973.59
2008,01,05,01,20,973.62
2008,01,05,01,21,973.61
2008,01,05,01,22,973.59
2008,01,05,01,23,973.59
2008,01,05,01,24,973.61
2008,01,05,01,25,973.69
2008,01,05,01,26,973.76
2008,01,05,01,27,973.81
2008,01,05,01,28,973.88
2008,01,05,01,29,973.82
2008,01,05,01,30,973.83
2008,01,05,01,31,973.89
2008,01,05,01,32,973.98
2008,01,05,01,33,973.97
2008,01,05,01,34,973.99
2008,01,05,01,35,973.99
2008,01,05,01,36,973.97
2008,01,05,01,37,974.06
2008,01,05,01,38,974.10
2008,01,05,01,39,974.17
2008,01,05,01,40,974.23
2008,01,05,01,41,974.26
2008,01,05,01,42,974.30
2008,01,05,01,43,974.33
2008,01,05,01,44,974.33
2008,01,05,01,45,974.33
2008,01,05,01,46,974.33
2008,01,05,01,47,974.37
2008,01,05,01,48,974.33
2008,01,05,01,49,974.30
2008,01,05,01,50,974.30
2008,01,05,01,51,974.30
2008,01,05,01,52,974.33
2008,01,05,01,53,974.33
2008,01,05,01,54,974.38
2008,01,05,01,55,974.44
2008,01,05,01,56,974.50
2008,01,05,01,57,974.54
2008,01,05,01,58,974.55
2008,01,05,01,59,974.65
2008,01,05,02,00,974.72
2008,01,05,02,01,974.82
2008,01,05,02,02,974.84
2008,01,05,02,03,974.87
2008,01,05,02,04,974.99
2008,01,05,02,05,975.04
2008,01,05,02,06,975.08
2008,01,05,02,07,975.09
2008,01,05,02,08,975.14
2008,01,05,02,09,975.19
2008,01,05,02,10,975.32
2008,01,05,02,11,975.34
2008,01,05,02,12,975.28
2008,01,05,02,13,975.25
2008,01,05,02,14,975.21
2008,01,05,02,15,975.21
2008,01,05,02,16,975.18
2008,01,05,02,17,975.24
2008,01,05,02,18,975.38
2008,01,05,02,19,975.35
2008,01,05,02,20,975.39
2008,01,05,02,21,975.52
2008,01,05,02,22,975.55
2008,01,05,02,23,975.59
2008,01,05,02,24,975.55
2008,01,05,02,25,975.56
2008,01,05,02,26,975.66
2008,01,05,02,27,975.76
2008,01,05,02,28,975.82
2008,01,05,02,29,975.80
2008,01,05,02,30,975.92
2008,01,05,02,31,975.97
2008,01,05,02,32,976.06
2008,01,05,02,33,976.06
2008,01,05,02,34,976.03
2008,01,05,02,35,976.05
2008,01,05,02,36,975.97
2008,01,05,02,37,976.02
2008,01,05,02,38,975.92
2008,01,05,02,39,975.92
2008,01,05,02,40,975.97
2008,01,05,02,41,976.10
2008,01,05,02,42,976.18
2008,01,05,02,43,976.12
2008,01,05,02,44,976.27
2008,01,05,02,45,976.32
2008,01,05,02,46,976.28
2008,01,05,02,47,976.36
2008,01,05,02,48,976.35
2008,01,05,02,49,976.40
2008,01,05,02,50,976.30
2008,01,05,02,51,976.30
2008,01,05,02,52,976.38
2008,01,05,02,53,976.49
2008,01,05,02,54,976.57
2008,01,05,02,55,976.57
2008,01,05,02,56,976.59
2008,01,05,02,57,976.67
2008,01,05,02,58,976.67
2008,01,05,02,59,976.69
2008,01,05,03,00,976.63
2008,01,05,03,01,976.63
2008,01,05,03,02,976.68
2008,01,05,03,03,976.76
2008,01,05,03,04,976.88
2008,01,05,03,05,976.91
2008,01,05,03,06,976.93
2008,01,05,03,07,976.92
2008,01,05,03,08,976.97
2008,01,05,03,09,977.01
2008,01,05,03,10,977.02
2008,01,05,03,11,977.04
2008,01,05,03,12,977.04
2008,01,05,03,13,977.04
2008,01,05,03,14,976.99
2008,01,05,03,15,977.08
2008,01,05,03,16,977.04
2008,01,05,03,17,977.11
2008,01,05,03,18,977.11
2008,01,05,03,19,977.11
2008,01,05,03,20,977.18
2008,01,05,03,21,977.23
2008,01,05,03,22,977.20
2008,01,05,03,23,977.13
2008,01,05,03,24,977.12
2008,01,05,03,25,977.14
2008,01,05,03,26,977.15
2008,01,05,03,27,977.20
2008,01,05,03,28,977.14
2008,01,05,03,29,977.18
2008,01,05,03,30,977.22
2008,01,05,03,31,977.28
2008,01,05,03,32,977.36
2008,01,05,03,33,977.46
2008,01,05,03,34,977.59
2008,01,05,03,35,977.75
2008,01,05,03,36,977.79
2008,01,05,03,37,977.76
2008,01,05,03,38,977.80
2008,01,05,03,39,977.65
2008,01,05,03,40,977.66
2008,01,05,03,41,977.79
2008,01,05,03,42,977.79
2008,01,05,03,43,977.79
2008,01,05,03,44,977.75
2008,01,05,03,45,977.80
2008,01,05,03,46,977.92
2008,01,05,03,47,977.96
2008,01,05,03,48,978.01
2008,01,05,03,49,977.93
2008,01,05,03,50,978.00
2008,01,05,03,51,978.07
2008,01,05,03,52,978.09
2008,01,05,03,53,978.06
2008,01,05,03,54,978.09
2008,01,05,03,55,978.10
2008,01,05,03,56,978.16
2008,01,05,03,57,978.14
2008,01,05,03,58,978.06
2008,01,05,03,59,978.11
2008,01,05,04,00,978.34
2008,01,05,04,01,978.17
2008,01,05,04,02,978.29
2008,01,05,04,03,978.36
2008,01,05,04,04,978.36
2008,01,05,04,05,978.39
2008,01,05,04,06,978.34
2008,01,05,04,07,978.43
2008,01,05,04,08,978.48
2008,01,05,04,09,978.58
2008,01,05,04,10,978.67
2008,01,05,04,11,978.70
2008,01,05,04,12,978.73
2008,01,05,04,13,978.70
2008,01,05,04,14,978.75
2008,01,05,04,15,978.87
2008,01,05,04,16,978.91
2008,01,05,04,17,978.93
2008,01,05,04,18,978.93
2008,01,05,04,19,979.05
2008,01,05,04,20,978.98
2008,01,05,04,21,979.03
2008,01,05,04,22,978.98
2008,01,05,04,23,979.03
2008,01,05,04,24,978.95
2008,01,05,04,25,979.04
2008,01,05,04,26,979.03
2008,01,05,04,27,979.02
2008,01,05,04,28,979.07
2008,01,05,04,29,979.12
2008,01,05,04,30,979.28
2008,01,05,04,31,979.31
2008,01,05,04,32,979.34
2008,01,05,04,33,979.32
2008,01,05,04,34,979.38
2008,01,05,04,35,979.41
2008,01,05,04,36,979.41
2008,01,05,04,37,979.45
2008,01,05,04,38,979.46
2008,01,05,04,39,979.54
2008,01,05,04,40,979.45
2008,01,05,04,41,979.46
2008,01,05,04,42,979.55
2008,01,05,04,43,979.55
2008,01,05,04,44,979.56
2008,01,05,04,45,979.61
2008,01,05,04,46,979.58
2008,01,05,04,47,979.55
2008,01,05,04,48,979.58
2008,01,05,04,49,979.55
2008,01,05,04,50,979.58
2008,01,05,04,51,979.60
2008,01,05,04,52,979.68
2008,01,05,04,53,979.69
2008,01,05,04,54,979.75
2008,01,05,04,55,979.76
2008,01,05,04,56,979.83
2008,01,05,04,57,979.86
2008,01,05,04,58,979.88
2008,01,05,04,59,979.86
2008,01,05,05,00,979.89
2008,01,05,05,01,979.95
2008,01,05,05,02,979.95
2008,01,05,05,03,980.00
2008,01,05,05,04,980.09
2008,01,05,05,05,980.06
2008,01,05,05,06,980.05
2008,01,05,05,07,980.00
2008,01,05,05,08,980.12
2008,01,05,05,09,980.16
2008,01,05,05,10,980.16
2008,01,05,05,11,980.20
2008,01,05,05,12,980.34
2008,01,05,05,13,980.36
2008,01,05,05,14,980.40
2008,01,05,05,15,980.46
2008,01,05,05,16,980.50
2008,01,05,05,17,980.50
2008,01,05,05,18,980.51
2008,01,05,05,19,980.56
2008,01,05,05,20,980.56
2008,01,05,05,21,980.56
2008,01,05,05,22,980.53
2008,01,05,05,23,980.60
2008,01,05,05,24,980.63
2008,01,05,05,25,980.63
2008,01,05,05,26,980.59
2008,01,05,05,27,980.57
2008,01,05,05,28,980.63
2008,01,05,05,29,980.63
2008,01,05,05,30,980.63
2008,01,05,05,31,980.66
2008,01,05,05,32,980.70
2008,01,05,05,33,980.73
2008,01,05,05,34,980.77
2008,01,05,05,35,980.80
2008,01,05,05,36,980.81
2008,01,05,05,37,980.83
2008,01,05,05,38,980.83
2008,01,05,05,39,980.83
2008,01,05,05,40,980.87
2008,01,05,05,41,980.83
2008,01,05,05,42,980.90
2008,01,05,05,43,980.90
2008,01,05,05,44,980.91
2008,01,05,05,45,981.00
2008,01,05,05,46,980.95
2008,01,05,05,47,981.07
2008,01,05,05,48,981.00
2008,01,05,05,49,981.00
2008,01,05,05,50,981.00
2008,01,05,05,51,981.00
2008,01,05,05,52,980.97
2008,01,05,05,53,980.91
2008,01,05,05,54,981.00
2008,01,05,05,55,981.01
2008,01,05,05,56,981.08
2008,01,05,05,57,981.10
2008,01,05,05,58,981.14
2008,01,05,05,59,981.20
2008,01,05,06,00,981.14
2008,01,05,06,01,981.25
2008,01,05,06,02,981.31
2008,01,05,06,03,981.30
2008,01,05,06,04,981.21
2008,01,05,06,05,981.24
2008,01,05,06,06,981.24
2008,01,05,06,07,981.27
2008,01,05,06,08,981.24
2008,01,05,06,09,981.25
2008,01,05,06,10,981.34
2008,01,05,06,11,981.42
2008,01,05,06,12,981.50
2008,01,05,06,13,981.44
2008,01,05,06,14,981.45
2008,01,05,06,15,981.58
2008,01,05,06,16,981.54
2008,01,05,06,17,981.45
2008,01,05,06,18,981.61
2008,01,05,06,19,981.66
2008,01,05,06,20,981.72
2008,01,05,06,21,981.85
2008,01,05,06,22,981.88
2008,01,05,06,23,981.90
2008,01,05,06,24,981.99
2008,01,05,06,25,981.98
2008,01,05,06,26,981.96
2008,01,05,06,27,982.02
2008,01,05,06,28,982.02
2008,01,05,06,29,982.02
2008,01,05,06,30,982.03
2008,01,05,06,31,982.09
2008,01,05,06,32,982.12
2008,01,05,06,33,982.12
2008,01,05,06,34,982.16
2008,01,05,06,35,982.22
2008,01,05,06,36,982.15
2008,01,05,06,37,982.16
2008,01,05,06,38,982.30
2008,01,05,06,39,982.39
2008,01,05,06,40,982.43
2008,01,05,06,41,982.40
2008,01,05,06,42,982.44
2008,01,05,06,43,982.46
2008,01,05,06,44,982.49
2008,01,05,06,45,982.50
2008,01,05,06,46,982.53
2008,01,05,06,47,982.49
2008,01,05,06,48,982.47
2008,01,05,06,49,982.49
2008,01,05,06,50,982.49
2008,01,05,06,51,982.53
2008,01,05,06,52,982.49
2008,01,05,06,53,982.49
2008,01,05,06,54,982.54
2008,01,05,06,55,982.66
2008,01,05,06,56,982.63
2008,01,05,06,57,982.60
2008,01,05,06,58,982.70
2008,01,05,06,59,982.70
2008,01,05,07,00,982.71
2008,01,05,07,01,982.76
2008,01,05,07,02,982.83
2008,01,05,07,03,982.83
2008,01,05,07,04,982.81
2008,01,05,07,05,982.90
2008,01,05,07,06,982.91
2008,01,05,07,07,982.97
2008,01,05,07,08,983.00
2008,01,05,07,09,983.00
2008,01,05,07,10,983.04
2008,01,05,07,11,983.03
2008,01,05,07,12,982.97
2008,01,05,07,13,983.01
2008,01,05,07,14,983.08
2008,01,05,07,15,983.15
2008,01,05,07,16,983.17
2008,01,05,07,17,983.20
2008,01,05,07,18,983.24
2008,01,05,07,19,983.20
2008,01,05,07,20,983.21
2008,01,05,07,21,983.31
2008,01,05,07,22,983.28
2008,01,05,07,23,983.31
2008,01,05,07,24,983.31
2008,01,05,07,25,983.31
2008,01,05,07,26,983.31
2008,01,05,07,27,983.34
2008,01,05,07,28,983.37
2008,01,05,07,29,983.41
2008,01,05,07,30,983.44
2008,01,05,07,31,983.48
2008,01,05,07,32,983.54
2008,01,05,07,33,983.54
2008,01,05,07,34,983.53
2008,01,05,07,35,983.53
2008,01,05,07,36,983.61
2008,01,05,07,37,983.61
2008,01,05,07,38,983.64
2008,01,05,07,39,983.68
2008,01,05,07,40,983.64
2008,01,05,07,41,983.65
2008,01,05,07,42,983.75
2008,01,05,07,43,983.68
2008,01,05,07,44,983.68
2008,01,05,07,45,983.71
2008,01,05,07,46,983.71
2008,01,05,07,47,983.75
2008,01,05,07,48,983.78
2008,01,05,07,49,983.76
2008,01,05,07,50,983.81
2008,01,05,07,51,983.81
2008,01,05,07,52,983.85
2008,01,05,07,53,983.88
2008,01,05,07,54,983.89
2008,01,05,07,55,983.95
2008,01,05,07,56,983.95
2008,01,05,07,57,983.98
2008,01,05,07,58,983.97
2008,01,05,07,59,983.95
2008,01,05,08,00,983.92
2008,01,05,08,01,983.98
2008,01,05,08,02,983.98
2008,01,05,08,03,984.02
2008,01,05,08,04,984.02
2008,01,05,08,05,984.05
2008,01,05,08,06,984.08
2008,01,05,08,07,984.08
2008,01,05,08,08,984.15
2008,01,05,08,09,984.22
2008,01,05,08,10,984.25
2008,01,05,08,11,984.29
2008,01,05,08,12,984.32
2008,01,05,08,13,984.32
2008,01,05,08,14,984.36
2008,01,05,08,15,984.37
2008,01,05,08,16,984.46
2008,01,05,08,17,984.49
2008,01,05,08,18,984.53
2008,01,05,08,19,984.56
2008,01,05,08,20,984.53
2008,01,05,08,21,984.55
2008,01,05,08,22,984.50
2008,01,05,08,23,984.63
2008,01,05,08,24,984.59
2008,01,05,08,25,984.59
2008,01,05,08,26,984.56
2008,01,05,08,27,984.63
2008,01,05,08,28,984.63
2008,01,05,08,29,984.66
2008,01,05,08,30,984.73
2008,01,05,08,31,984.76
2008,01,05,08,32,984.83
2008,01,05,08,33,984.83
2008,01,05,08,34,984.83
2008,01,05,08,35,984.86
2008,01,05,08,36,984.83
2008,01,05,08,37,984.86
2008,01,05,08,38,984.90
2008,01,05,08,39,984.93
2008,01,05,08,40,984.93
2008,01,05,08,41,984.97
2008,01,05,08,42,985.08
2008,01,05,08,43,985.17
2008,01,05,08,44,985.17
2008,01,05,08,45,985.17
2008,01,05,08,46,985.18
2008,01,05,08,47,985.24
2008,01,05,08,48,985.28
2008,01,05,08,49,985.41
2008,01,05,08,50,985.34
2008,01,05,08,51,985.38
2008,01,05,08,52,985.44
2008,01,05,08,53,985.44
2008,01,05,08,54,985.51
2008,01,05,08,55,985.44
2008,01,05,08,56,985.54
2008,01,05,08,57,985.61
2008,01,05,08,58,985.68
2008,01,05,08,59,985.71
2008,01,05,09,00,985.71
2008,01,05,09,01,985.74
2008,01,05,09,02,985.74
2008,01,05,09,03,985.78
2008,01,05,09,04,985.81
2008,01,05,09,05,985.92
2008,01,05,09,06,985.98
2008,01,05,09,07,985.96
2008,01,05,09,08,986.02
2008,01,05,09,09,986.02
2008,01,05,09,10,986.08
2008,01,05,09,11,986.08
2008,01,05,09,12,986.12
2008,01,05,09,13,986.09
2008,01,05,09,14,986.15
2008,01,05,09,15,986.19
2008,01,05,09,16,986.32
2008,01,05,09,17,986.32
2008,01,05,09,18,986.26
2008,01,05,09,19,986.32
2008,01,05,09,20,986.32
2008,01,05,09,21,986.29
2008,01,05,09,22,986.35
2008,01,05,09,23,986.33
2008,01,05,09,24,986.39
2008,01,05,09,25,986.40
2008,01,05,09,26,986.46
2008,01,05,09,27,986.49
2008,01,05,09,28,986.49
2008,01,05,09,29,986.49
2008,01,05,09,30,986.46
2008,01,05,09,31,986.49
2008,01,05,09,32,986.52
2008,01,05,09,33,986.50
2008,01,05,09,34,986.59
2008,01,05,09,35,986.59
2008,01,05,09,36,986.59
2008,01,05,09,37,986.66
2008,01,05,09,38,986.76
2008,01,05,09,39,986.76
2008,01,05,09,40,986.76
2008,01,05,09,41,986.83
2008,01,05,09,42,986.79
2008,01,05,09,43,986.77
2008,01,05,09,44,986.83
2008,01,05,09,45,986.86
2008,01,05,09,46,986.93
2008,01,05,09,47,986.93
2008,01,05,09,48,986.96
2008,01,05,09,49,986.93
2008,01,05,09,50,986.93
2008,01,05,09,51,986.93
2008,01,05,09,52,986.96
2008,01,05,09,53,987.00
2008,01,05,09,54,987.06
2008,01,05,09,55,987.06
2008,01,05,09,56,987.11
2008,01,05,09,57,987.20
2008,01,05,09,58,987.20
2008,01,05,09,59,987.17
2008,01,05,10,00,987.17
2008,01,05,10,01,987.20
2008,01,05,10,02,987.17
2008,01,05,10,03,987.17
2008,01,05,10,04,987.20
2008,01,05,10,05,987.23
2008,01,05,10,06,987.23
2008,01,05,10,07,987.23
2008,01,05,10,08,987.27
2008,01,05,10,09,987.27
2008,01,05,10,10,987.27
2008,01,05,10,11,987.23
2008,01,05,10,12,987.23
2008,01,05,10,13,987.27
2008,01,05,10,14,987.27
2008,01,05,10,15,987.28
2008,01,05,10,16,987.34
2008,01,05,10,17,987.44
2008,01,05,10,18,987.44
2008,01,05,10,19,987.37
2008,01,05,10,20,987.29
2008,01,05,10,21,987.24
2008,01,05,10,22,987.31
2008,01,05,10,23,987.37
2008,01,05,10,24,987.34
2008,01,05,10,25,987.37
2008,01,05,10,26,987.40
2008,01,05,10,27,987.47
2008,01,05,10,28,987.48
2008,01,05,10,29,987.54
2008,01,05,10,30,987.51
2008,01,05,10,31,987.47
2008,01,05,10,32,987.45
2008,01,05,10,33,987.54
2008,01,05,10,34,987.58
2008,01,05,10,35,987.64
2008,01,05,10,36,987.67
2008,01,05,10,37,987.64
2008,01,05,10,38,987.64
2008,01,05,10,39,987.61
2008,01,05,10,40,987.57
2008,01,05,10,41,987.57
2008,01,05,10,42,987.57
2008,01,05,10,43,987.57
2008,01,05,10,44,987.61
2008,01,05,10,45,987.57
2008,01,05,10,46,987.61
2008,01,05,10,47,987.58
2008,01,05,10,48,987.64
2008,01,05,10,49,987.61
2008,01,05,10,50,987.57
2008,01,05,10,51,987.54
2008,01,05,10,52,987.57
2008,01,05,10,53,987.57
2008,01,05,10,54,987.54
2008,01,05,10,55,987.57
2008,01,05,10,56,987.57
2008,01,05,10,57,987.57
2008,01,05,10,58,987.64
2008,01,05,10,59,987.64
2008,01,05,11,00,987.57
2008,01,05,11,01,987.64
2008,01,05,11,02,987.67
2008,01,05,11,03,987.67
2008,01,05,11,04,987.67
2008,01,05,11,05,987.71
2008,01,05,11,06,987.67
2008,01,05,11,07,987.67
2008,01,05,11,08,987.71
2008,01,05,11,09,987.71
2008,01,05,11,10,987.74
2008,01,05,11,11,987.74
2008,01,05,11,12,987.74
2008,01,05,11,13,987.79
2008,01,05,11,14,987.85
2008,01,05,11,15,987.90
2008,01,05,11,16,987.84
2008,01,05,11,17,987.84
2008,01,05,11,18,987.84
2008,01,05,11,19,987.81
2008,01,05,11,20,987.81
2008,01,05,11,21,987.84
2008,01,05,11,22,987.74
2008,01,05,11,23,987.78
2008,01,05,11,24,987.74
2008,01,05,11,25,987.74
2008,01,05,11,26,987.74
2008,01,05,11,27,987.71
2008,01,05,11,28,987.71
2008,01,05,11,29,987.71
2008,01,05,11,30,987.71
2008,01,05,11,31,987.74
2008,01,05,11,32,987.74
2008,01,05,11,33,987.71
2008,01,05,11,34,987.78
2008,01,05,11,35,987.74
2008,01,05,11,36,987.78
2008,01,05,11,37,987.84
2008,01,05,11,38,987.81
2008,01,05,11,39,987.88
2008,01,05,11,40,987.91
2008,01,05,11,41,987.91
2008,01,05,11,42,987.91
2008,01,05,11,43,987.95
2008,01,05,11,44,987.95
2008,01,05,11,45,987.98
2008,01,05,11,46,987.98
2008,01,05,11,47,987.98
2008,01,05,11,48,987.95
2008,01,05,11,49,987.95
2008,01,05,11,50,987.95
2008,01,05,11,51,987.98
2008,01,05,11,52,987.99
2008,01,05,11,53,988.05
2008,01,05,11,54,988.06
2008,01,05,11,55,988.11
2008,01,05,11,56,988.11
2008,01,05,11,57,988.15
2008,01,05,11,58,988.15
2008,01,05,11,59,988.18
2008,01,05,12,00,988.15
2008,01,05,12,01,988.25
2008,01,05,12,02,988.25
2008,01,05,12,03,988.28
2008,01,05,12,04,988.28
2008,01,05,12,05,988.28
2008,01,05,12,06,988.32
2008,01,05,12,07,988.35
2008,01,05,12,08,988.32
2008,01,05,12,09,988.28
2008,01,05,12,10,988.32
2008,01,05,12,11,988.35
2008,01,05,12,12,988.32
2008,01,05,12,13,988.28
2008,01,05,12,14,988.25
2008,01,05,12,15,988.32
2008,01,05,12,16,988.36
2008,01,05,12,17,988.42
2008,01,05,12,18,988.45
2008,01,05,12,19,988.45
2008,01,05,12,20,988.52
2008,01,05,12,21,988.49
2008,01,05,12,22,988.52
2008,01,05,12,23,988.52
2008,01,05,12,24,988.52
2008,01,05,12,25,988.52
2008,01,05,12,26,988.55
2008,01,05,12,27,988.55
2008,01,05,12,28,988.59
2008,01,05,12,29,988.55
2008,01,05,12,30,988.69
2008,01,05,12,31,988.69
2008,01,05,12,32,988.66
2008,01,05,12,33,988.70
2008,01,05,12,34,988.76
2008,01,05,12,35,988.72
2008,01,05,12,36,988.69
2008,01,05,12,37,988.72
2008,01,05,12,38,988.72
2008,01,05,12,39,988.72
2008,01,05,12,40,988.69
2008,01,05,12,41,988.72
2008,01,05,12,42,988.72
2008,01,05,12,43,988.72
2008,01,05,12,44,988.72
2008,01,05,12,45,988.72
2008,01,05,12,46,988.76
2008,01,05,12,47,988.76
2008,01,05,12,48,988.72
2008,01,05,12,49,988.72
2008,01,05,12,50,988.76
2008,01,05,12,51,988.79
2008,01,05,12,52,988.76
2008,01,05,12,53,988.79
2008,01,05,12,54,988.76
2008,01,05,12,55,988.76
2008,01,05,12,56,988.79
2008,01,05,12,57,988.83
2008,01,05,12,58,988.79
2008,01,05,12,59,988.83
2008,01,05,13,00,988.86
2008,01,05,13,01,988.93
2008,01,05,13,02,988.89
2008,01,05,13,03,988.89
2008,01,05,13,04,988.93
2008,01,05,13,05,988.96
2008,01,05,13,06,988.96
2008,01,05,13,07,989.00
2008,01,05,13,08,989.00
2008,01,05,13,09,988.96
2008,01,05,13,10,989.00
2008,01,05,13,11,989.00
2008,01,05,13,12,989.03
2008,01,05,13,13,989.00
2008,01,05,13,14,989.03
2008,01,05,13,15,989.03
2008,01,05,13,16,989.03
2008,01,05,13,17,989.00
2008,01,05,13,18,989.06
2008,01,05,13,19,989.06
2008,01,05,13,20,989.06
2008,01,05,13,21,989.10
2008,01,05,13,22,989.10
2008,01,05,13,23,989.07
2008,01,05,13,24,989.13
2008,01,05,13,25,989.10
2008,01,05,13,26,989.13
2008,01,05,13,27,989.13
2008,01,05,13,28,989.20
2008,01,05,13,29,989.20
2008,01,05,13,30,989.20
2008,01,05,13,31,989.16
2008,01,05,13,32,989.16
2008,01,05,13,33,989.16
2008,01,05,13,34,989.20
2008,01,05,13,35,989.16
2008,01,05,13,36,989.22
2008,01,05,13,37,989.16
2008,01,05,13,38,989.20
2008,01,05,13,39,989.20
2008,01,05,13,40,989.20
2008,01,05,13,41,989.20
2008,01,05,13,42,989.20
2008,01,05,13,43,989.20
2008,01,05,13,44,989.23
2008,01,05,13,45,989.30
2008,01,05,13,46,989.27
2008,01,05,13,47,989.30
2008,01,05,13,48,989.40
2008,01,05,13,49,989.40
2008,01,05,13,50,989.40
2008,01,05,13,51,989.44
2008,01,05,13,52,989.37
2008,01,05,13,53,989.40
2008,01,05,13,54,989.33
2008,01,05,13,55,989.30
2008,01,05,13,56,989.30
2008,01,05,13,57,989.30
2008,01,05,13,58,989.33
2008,01,05,13,59,989.33
2008,01,05,14,00,989.33
2008,01,05,14,01,989.37
2008,01,05,14,02,989.34
2008,01,05,14,03,989.40
2008,01,05,14,04,989.44
2008,01,05,14,05,989.40
2008,01,05,14,06,989.47
2008,01,05,14,07,989.54
2008,01,05,14,08,989.47
2008,01,05,14,09,989.44
2008,01,05,14,10,989.40
2008,01,05,14,11,989.47
2008,01,05,14,12,989.50
2008,01,05,14,13,989.47
2008,01,05,14,14,989.54
2008,01,05,14,15,989.54
2008,01,05,14,16,989.54
2008,01,05,14,17,989.54
2008,01,05,14,18,989.54
2008,01,05,14,19,989.54
2008,01,05,14,20,989.57
2008,01,05,14,21,989.54
2008,01,05,14,22,989.64
2008,01,05,14,23,989.60
2008,01,05,14,24,989.70
2008,01,05,14,25,989.64
2008,01,05,14,26,989.60
2008,01,05,14,27,989.64
2008,01,05,14,28,989.64
2008,01,05,14,29,989.60
2008,01,05,14,30,989.60
2008,01,05,14,31,989.60
2008,01,05,14,32,989.60
2008,01,05,14,33,989.64
2008,01,05,14,34,989.64
2008,01,05,14,35,989.60
2008,01,05,14,36,989.60
2008,01,05,14,37,989.60
2008,01,05,14,38,989.71
2008,01,05,14,39,989.74
2008,01,05,14,40,989.74
2008,01,05,14,41,989.77
2008,01,05,14,42,989.70
2008,01,05,14,43,989.65
2008,01,05,14,44,989.84
2008,01,05,14,45,989.84
2008,01,05,14,46,989.84
2008,01,05,14,47,989.84
2008,01,05,14,48,989.84
2008,01,05,14,49,989.88
2008,01,05,14,50,989.94
2008,01,05,14,51,989.92
2008,01,05,14,52,989.98
2008,01,05,14,53,989.98
2008,01,05,14,54,989.98
2008,01,05,14,55,989.98
2008,01,05,14,56,990.01
2008,01,05,14,57,990.01
2008,01,05,14,58,990.04
2008,01,05,14,59,990.04
2008,01,05,15,00,990.08
2008,01,05,15,01,990.11
2008,01,05,15,02,990.15
2008,01,05,15,03,990.18
2008,01,05,15,04,990.11
2008,01,05,15,05,990.15
2008,01,05,15,06,990.15
2008,01,05,15,07,990.15
2008,01,05,15,08,990.21
2008,01,05,15,09,990.18
2008,01,05,15,10,990.21
2008,01,05,15,11,990.28
2008,01,05,15,12,990.28
2008,01,05,15,13,990.32
2008,01,05,15,14,990.32
2008,01,05,15,15,990.42
2008,01,05,15,16,990.42
2008,01,05,15,17,990.42
2008,01,05,15,18,990.45
2008,01,05,15,19,990.49
2008,01,05,15,20,990.46
2008,01,05,15,21,990.52
2008,01,05,15,22,990.55
2008,01,05,15,23,990.55
2008,01,05,15,24,990.52
2008,01,05,15,25,990.55
2008,01,05,15,26,990.59
2008,01,05,15,27,990.59
2008,01,05,15,28,990.59
2008,01,05,15,29,990.62
2008,01,05,15,30,990.65
2008,01,05,15,31,990.69
2008,01,05,15,32,990.72
2008,01,05,15,33,990.72
2008,01,05,15,34,990.76
2008,01,05,15,35,990.76
2008,01,05,15,36,990.72
2008,01,05,15,37,990.79
2008,01,05,15,38,990.79
2008,01,05,15,39,990.82
2008,01,05,15,40,990.82
2008,01,05,15,41,990.76
2008,01,05,15,42,990.79
2008,01,05,15,43,990.89
2008,01,05,15,44,990.96
2008,01,05,15,45,990.93
2008,01,05,15,46,990.96
2008,01,05,15,47,990.93
2008,01,05,15,48,990.96
2008,01,05,15,49,990.96
2008,01,05,15,50,990.93
2008,01,05,15,51,990.96
2008,01,05,15,52,990.95
2008,01,05,15,53,990.89
2008,01,05,15,54,990.86
2008,01,05,15,55,990.93
2008,01,05,15,56,990.89
2008,01,05,15,57,990.93
2008,01,05,15,58,990.89
2008,01,05,15,59,990.86
2008,01,05,16,00,990.99
2008,01,05,16,01,991.03
2008,01,05,16,02,990.99
2008,01,05,16,03,990.96
2008,01,05,16,04,990.99
2008,01,05,16,05,991.03
2008,01,05,16,06,991.09
2008,01,05,16,07,991.13
2008,01,05,16,08,991.06
2008,01,05,16,09,991.06
2008,01,05,16,10,991.03
2008,01,05,16,11,991.13
2008,01,05,16,12,991.09
2008,01,05,16,13,991.03
2008,01,05,16,14,991.14
2008,01,05,16,15,991.20
2008,01,05,16,16,991.09
2008,01,05,16,17,991.23
2008,01,05,16,18,991.30
2008,01,05,16,19,991.40
2008,01,05,16,20,991.33
2008,01,05,16,21,991.37
2008,01,05,16,22,991.40
2008,01,05,16,23,991.37
2008,01,05,16,24,991.40
2008,01,05,16,25,991.43
2008,01,05,16,26,991.50
2008,01,05,16,27,991.47
2008,01,05,16,28,991.43
2008,01,05,16,29,991.53
2008,01,05,16,30,991.47
2008,01,05,16,31,991.50
2008,01,05,16,32,991.50
2008,01,05,16,33,991.53
2008,01,05,16,34,991.53
2008,01,05,16,35,991.57
2008,01,05,16,36,991.60